User: anonymous   Login
Location: Raven Hill Discovery Center
(45.1336°N, 85.0553°W)
Time: 00:01:58
(UTC-05:00)
Language:

Cosmos 1470 - Orbit

View from above orbital plane
View from above orbital plane
View from above satellite
View from above satellite

Ground track
Ground track

The orbit data is extracted from the following two-line orbital elements,

1 14147U 83061A   15059.64726715  .00003335  00000-0  21158-3 0  9997
2 14147 082.5146 142.1070 0010852 256.8298 103.1720 15.08552758478139
Epoch (UTC): 28 February 2015 15:32:03
Eccentricity: 0.0010852
inclination: 82.5146°
perigee height: 533 km
apogee height: 548 km
right ascension of ascending node: 142.1070°
argument of perigee: 256.8298°
revolutions per day: 15.08552758
mean anomaly at epoch: 103.1720°
orbit number at epoch: 47813

The dashed part of the orbit path shows where the satellite is in the earth's shadow,  

DLR